Year,Month,Day,Hour,Minute,Value (Times are PST for temperature in C)
2009,07,19,00,00,17.30
2009,07,19,00,01,17.30
2009,07,19,00,02,17.30
2009,07,19,00,03,17.30
2009,07,19,00,04,17.30
2009,07,19,00,05,17.30
2009,07,19,00,06,17.30
2009,07,19,00,07,17.30
2009,07,19,00,08,17.30
2009,07,19,00,09,17.30
2009,07,19,00,10,17.30
2009,07,19,00,11,17.30
2009,07,19,00,12,17.30
2009,07,19,00,13,17.20
2009,07,19,00,14,17.20
2009,07,19,00,15,17.20
2009,07,19,00,16,17.20
2009,07,19,00,17,17.20
2009,07,19,00,18,17.20
2009,07,19,00,19,17.30
2009,07,19,00,20,17.30
2009,07,19,00,21,17.20
2009,07,19,00,22,17.20
2009,07,19,00,23,17.20
2009,07,19,00,24,17.20
2009,07,19,00,25,17.20
2009,07,19,00,26,17.10
2009,07,19,00,27,17.10
2009,07,19,00,28,17.10
2009,07,19,00,29,17.10
2009,07,19,00,30,17.10
2009,07,19,00,31,17.10
2009,07,19,00,32,17.10
2009,07,19,00,33,17.10
2009,07,19,00,34,17.00
2009,07,19,00,35,17.00
2009,07,19,00,36,17.00
2009,07,19,00,37,17.00
2009,07,19,00,38,17.00
2009,07,19,00,39,16.90
2009,07,19,00,40,16.90
2009,07,19,00,41,16.90
2009,07,19,00,42,16.90
2009,07,19,00,43,16.90
2009,07,19,00,44,16.90
2009,07,19,00,45,16.90
2009,07,19,00,46,16.80
2009,07,19,00,47,16.80
2009,07,19,00,48,16.80
2009,07,19,00,49,16.80
2009,07,19,00,50,16.80
2009,07,19,00,51,16.80
2009,07,19,00,52,16.80
2009,07,19,00,53,16.70
2009,07,19,00,54,16.70
2009,07,19,00,55,16.70
2009,07,19,00,56,16.70
2009,07,19,00,57,16.70
2009,07,19,00,58,16.70
2009,07,19,00,59,16.70
2009,07,19,01,00,16.70
2009,07,19,01,01,16.70
2009,07,19,01,02,16.70
2009,07,19,01,03,16.70
2009,07,19,01,04,16.70
2009,07,19,01,05,16.70
2009,07,19,01,06,16.70
2009,07,19,01,07,16.70
2009,07,19,01,08,16.70
2009,07,19,01,09,16.70
2009,07,19,01,10,16.70
2009,07,19,01,11,16.60
2009,07,19,01,12,16.60
2009,07,19,01,13,16.60
2009,07,19,01,14,16.60
2009,07,19,01,15,16.60
2009,07,19,01,16,16.40
2009,07,19,01,17,16.40
2009,07,19,01,18,16.40
2009,07,19,01,19,16.40
2009,07,19,01,20,16.40
2009,07,19,01,21,16.40
2009,07,19,01,22,16.40
2009,07,19,01,23,16.40
2009,07,19,01,24,16.40
2009,07,19,01,25,16.40
2009,07,19,01,26,16.40
2009,07,19,01,27,16.40
2009,07,19,01,28,16.40
2009,07,19,01,29,16.40
2009,07,19,01,30,16.40
2009,07,19,01,31,16.40
2009,07,19,01,32,16.40
2009,07,19,01,33,16.40
2009,07,19,01,34,16.40
2009,07,19,01,35,16.30
2009,07,19,01,36,16.30
2009,07,19,01,37,16.30
2009,07,19,01,38,16.30
2009,07,19,01,39,16.30
2009,07,19,01,40,16.30
2009,07,19,01,41,16.30
2009,07,19,01,42,16.30
2009,07,19,01,43,16.30
2009,07,19,01,44,16.30
2009,07,19,01,45,16.30
2009,07,19,01,46,16.30
2009,07,19,01,47,16.30
2009,07,19,01,48,16.30
2009,07,19,01,49,16.30
2009,07,19,01,50,16.30
2009,07,19,01,51,16.30
2009,07,19,01,52,16.30
2009,07,19,01,53,16.30
2009,07,19,01,54,16.30
2009,07,19,01,55,16.30
2009,07,19,01,56,16.30
2009,07,19,01,57,16.30
2009,07,19,01,58,16.30
2009,07,19,01,59,16.40
2009,07,19,02,00,16.40
2009,07,19,02,01,16.40
2009,07,19,02,02,16.30
2009,07,19,02,03,16.30
2009,07,19,02,04,16.30
2009,07,19,02,05,16.30
2009,07,19,02,06,16.30
2009,07,19,02,07,16.30
2009,07,19,02,08,16.30
2009,07,19,02,09,16.30
2009,07,19,02,10,16.30
2009,07,19,02,11,16.30
2009,07,19,02,12,16.30
2009,07,19,02,13,16.30
2009,07,19,02,14,16.30
2009,07,19,02,15,16.20
2009,07,19,02,16,16.20
2009,07,19,02,17,16.20
2009,07,19,02,18,16.20
2009,07,19,02,19,16.20
2009,07,19,02,20,16.20
2009,07,19,02,21,16.20
2009,07,19,02,22,16.20
2009,07,19,02,23,16.20
2009,07,19,02,24,16.20
2009,07,19,02,25,16.20
2009,07,19,02,26,16.20
2009,07,19,02,27,16.20
2009,07,19,02,28,16.20
2009,07,19,02,29,16.10
2009,07,19,02,30,16.10
2009,07,19,02,31,16.10
2009,07,19,02,32,16.10
2009,07,19,02,33,16.10
2009,07,19,02,34,16.10
2009,07,19,02,35,16.10
2009,07,19,02,36,16.10
2009,07,19,02,37,16.10
2009,07,19,02,38,16.10
2009,07,19,02,39,16.10
2009,07,19,02,40,16.00
2009,07,19,02,41,15.90
2009,07,19,02,42,15.90
2009,07,19,02,43,15.90
2009,07,19,02,44,15.90
2009,07,19,02,45,15.90
2009,07,19,02,46,15.90
2009,07,19,02,47,15.90
2009,07,19,02,48,15.80
2009,07,19,02,49,15.80
2009,07,19,02,50,15.80
2009,07,19,02,51,15.80
2009,07,19,02,52,15.80
2009,07,19,02,53,15.80
2009,07,19,02,54,15.80
2009,07,19,02,55,15.80
2009,07,19,02,56,15.80
2009,07,19,02,57,15.80
2009,07,19,02,58,15.80
2009,07,19,02,59,15.80
2009,07,19,03,00,15.80
2009,07,19,03,01,15.70
2009,07,19,03,02,15.70
2009,07,19,03,03,15.70
2009,07,19,03,04,15.70
2009,07,19,03,05,15.70
2009,07,19,03,06,15.60
2009,07,19,03,07,15.60
2009,07,19,03,08,15.60
2009,07,19,03,09,15.60
2009,07,19,03,10,15.60
2009,07,19,03,11,15.60
2009,07,19,03,12,15.60
2009,07,19,03,13,15.60
2009,07,19,03,14,15.50
2009,07,19,03,15,15.50
2009,07,19,03,16,15.50
2009,07,19,03,17,15.50
2009,07,19,03,18,15.50
2009,07,19,03,19,15.40
2009,07,19,03,20,15.40
2009,07,19,03,21,15.40
2009,07,19,03,22,15.40
2009,07,19,03,23,15.30
2009,07,19,03,24,15.30
2009,07,19,03,25,15.30
2009,07,19,03,26,15.30
2009,07,19,03,27,15.30
2009,07,19,03,28,15.30
2009,07,19,03,29,15.30
2009,07,19,03,30,15.20
2009,07,19,03,31,15.20
2009,07,19,03,32,15.20
2009,07,19,03,33,15.20
2009,07,19,03,34,15.20
2009,07,19,03,35,15.20
2009,07,19,03,36,15.20
2009,07,19,03,37,15.20
2009,07,19,03,38,15.10
2009,07,19,03,39,15.10
2009,07,19,03,40,15.10
2009,07,19,03,41,15.10
2009,07,19,03,42,15.10
2009,07,19,03,43,15.10
2009,07,19,03,44,15.10
2009,07,19,03,45,15.10
2009,07,19,03,46,15.10
2009,07,19,03,47,15.10
2009,07,19,03,48,15.10
2009,07,19,03,49,15.10
2009,07,19,03,50,15.10
2009,07,19,03,51,15.10
2009,07,19,03,52,15.00
2009,07,19,03,53,15.00
2009,07,19,03,54,15.00
2009,07,19,03,55,15.00
2009,07,19,03,56,15.00
2009,07,19,03,57,14.90
2009,07,19,03,58,14.90
2009,07,19,03,59,14.90
2009,07,19,04,00,14.90
2009,07,19,04,01,14.90
2009,07,19,04,02,14.90
2009,07,19,04,03,14.80
2009,07,19,04,04,14.80
2009,07,19,04,05,14.80
2009,07,19,04,06,14.80
2009,07,19,04,07,14.80
2009,07,19,04,08,14.80
2009,07,19,04,09,14.80
2009,07,19,04,10,14.80
2009,07,19,04,11,14.80
2009,07,19,04,12,14.80
2009,07,19,04,13,14.80
2009,07,19,04,14,14.80
2009,07,19,04,15,14.80
2009,07,19,04,16,14.80
2009,07,19,04,17,14.70
2009,07,19,04,18,14.70
2009,07,19,04,19,14.70
2009,07,19,04,20,14.70
2009,07,19,04,21,14.70
2009,07,19,04,22,14.70
2009,07,19,04,23,14.70
2009,07,19,04,24,14.70
2009,07,19,04,25,14.70
2009,07,19,04,26,14.70
2009,07,19,04,27,14.70
2009,07,19,04,28,14.70
2009,07,19,04,29,14.70
2009,07,19,04,30,14.70
2009,07,19,04,31,14.70
2009,07,19,04,32,14.70
2009,07,19,04,33,14.70
2009,07,19,04,34,14.70
2009,07,19,04,35,14.70
2009,07,19,04,36,14.70
2009,07,19,04,37,14.70
2009,07,19,04,38,14.70
2009,07,19,04,39,14.70
2009,07,19,04,40,14.70
2009,07,19,04,41,14.70
2009,07,19,04,42,14.60
2009,07,19,04,43,14.60
2009,07,19,04,44,14.60
2009,07,19,04,45,14.60
2009,07,19,04,46,14.60
2009,07,19,04,47,14.60
2009,07,19,04,48,14.50
2009,07,19,04,49,14.50
2009,07,19,04,50,14.40
2009,07,19,04,51,14.40
2009,07,19,04,52,14.30
2009,07,19,04,53,14.20
2009,07,19,04,54,14.20
2009,07,19,04,55,14.10
2009,07,19,04,56,14.10
2009,07,19,04,57,14.00
2009,07,19,04,58,13.90
2009,07,19,04,59,13.90
2009,07,19,05,00,13.80
2009,07,19,05,01,13.80
2009,07,19,05,02,13.70
2009,07,19,05,03,13.70
2009,07,19,05,04,13.70
2009,07,19,05,05,13.70
2009,07,19,05,06,13.70
2009,07,19,05,07,13.70
2009,07,19,05,08,13.70
2009,07,19,05,09,13.70
2009,07,19,05,10,13.70
2009,07,19,05,11,13.70
2009,07,19,05,12,13.60
2009,07,19,05,13,13.60
2009,07,19,05,14,13.60
2009,07,19,05,15,13.50
2009,07,19,05,16,13.50
2009,07,19,05,17,13.50
2009,07,19,05,18,13.40
2009,07,19,05,19,13.40
2009,07,19,05,20,13.40
2009,07,19,05,21,13.30
2009,07,19,05,22,13.30
2009,07,19,05,23,13.30
2009,07,19,05,24,13.30
2009,07,19,05,25,13.30
2009,07,19,05,26,13.30
2009,07,19,05,27,13.30
2009,07,19,05,28,13.20
2009,07,19,05,29,13.10
2009,07,19,05,30,13.10
2009,07,19,05,31,13.00
2009,07,19,05,32,13.00
2009,07,19,05,33,12.90
2009,07,19,05,34,12.80
2009,07,19,05,35,12.80
2009,07,19,05,36,12.80
2009,07,19,05,37,12.80
2009,07,19,05,38,12.70
2009,07,19,05,39,12.70
2009,07,19,05,40,12.70
2009,07,19,05,41,12.70
2009,07,19,05,42,12.60
2009,07,19,05,43,12.60
2009,07,19,05,44,12.60
2009,07,19,05,45,12.60
2009,07,19,05,46,12.60
2009,07,19,05,47,12.60
2009,07,19,05,48,12.60
2009,07,19,05,49,12.60
2009,07,19,05,50,12.60
2009,07,19,05,51,12.60
2009,07,19,05,52,12.60
2009,07,19,05,53,12.60
2009,07,19,05,54,12.60
2009,07,19,05,55,12.60
2009,07,19,05,56,12.60
2009,07,19,05,57,12.50
2009,07,19,05,58,12.50
2009,07,19,05,59,12.50
2009,07,19,06,00,12.50
2009,07,19,06,01,12.50
2009,07,19,06,02,12.50
2009,07,19,06,03,12.50
2009,07,19,06,04,12.40
2009,07,19,06,05,12.40
2009,07,19,06,06,12.40
2009,07,19,06,07,12.30
2009,07,19,06,08,12.30
2009,07,19,06,09,12.30
2009,07,19,06,10,12.30
2009,07,19,06,11,12.30
2009,07,19,06,12,12.30
2009,07,19,06,13,12.30
2009,07,19,06,14,12.30
2009,07,19,06,15,12.30
2009,07,19,06,16,12.30
2009,07,19,06,17,12.30
2009,07,19,06,18,12.30
2009,07,19,06,19,12.30
2009,07,19,06,20,12.30
2009,07,19,06,21,12.40
2009,07,19,06,22,12.40
2009,07,19,06,23,12.40
2009,07,19,06,24,12.50
2009,07,19,06,25,12.50
2009,07,19,06,26,12.50
2009,07,19,06,27,12.50
2009,07,19,06,28,12.60
2009,07,19,06,29,12.60
2009,07,19,06,30,12.60
2009,07,19,06,31,12.60
2009,07,19,06,32,12.60
2009,07,19,06,33,12.70
2009,07,19,06,34,12.70
2009,07,19,06,35,12.70
2009,07,19,06,36,12.80
2009,07,19,06,37,12.80
2009,07,19,06,38,12.80
2009,07,19,06,39,12.90
2009,07,19,06,40,13.00
2009,07,19,06,41,13.10
2009,07,19,06,42,13.20
2009,07,19,06,43,13.30
2009,07,19,06,44,13.30
2009,07,19,06,45,13.30
2009,07,19,06,46,13.40
2009,07,19,06,47,13.50
2009,07,19,06,48,13.50
2009,07,19,06,49,13.60
2009,07,19,06,50,13.70
2009,07,19,06,51,13.80
2009,07,19,06,52,13.90
2009,07,19,06,53,14.00
2009,07,19,06,54,14.10
2009,07,19,06,55,14.20
2009,07,19,06,56,14.20
2009,07,19,06,57,14.10
2009,07,19,06,58,14.10
2009,07,19,06,59,14.00
2009,07,19,07,00,14.00
2009,07,19,07,01,13.90
2009,07,19,07,02,13.90
2009,07,19,07,03,13.90
2009,07,19,07,04,14.00
2009,07,19,07,05,14.00
2009,07,19,07,06,14.10
2009,07,19,07,07,14.10
2009,07,19,07,08,14.20
2009,07,19,07,09,14.20
2009,07,19,07,10,14.30
2009,07,19,07,11,14.30
2009,07,19,07,12,14.50
2009,07,19,07,13,14.50
2009,07,19,07,14,14.60
2009,07,19,07,15,14.80
2009,07,19,07,16,14.80
2009,07,19,07,17,14.90
2009,07,19,07,18,14.90
2009,07,19,07,19,15.00
2009,07,19,07,20,15.00
2009,07,19,07,21,15.10
2009,07,19,07,22,15.20
2009,07,19,07,23,15.30
2009,07,19,07,24,15.30
2009,07,19,07,25,15.40
2009,07,19,07,26,15.40
2009,07,19,07,27,15.50
2009,07,19,07,28,15.50
2009,07,19,07,29,15.50
2009,07,19,07,30,15.50
2009,07,19,07,31,15.50
2009,07,19,07,32,15.50
2009,07,19,07,33,15.50
2009,07,19,07,34,15.50
2009,07,19,07,35,15.60
2009,07,19,07,36,15.60
2009,07,19,07,37,15.50
2009,07,19,07,38,15.40
2009,07,19,07,39,15.20
2009,07,19,07,40,15.20
2009,07,19,07,41,15.10
2009,07,19,07,42,15.10
2009,07,19,07,43,15.10
2009,07,19,07,44,15.10
2009,07,19,07,45,15.10
2009,07,19,07,46,15.20
2009,07,19,07,47,15.30
2009,07,19,07,48,15.30
2009,07,19,07,49,15.40
2009,07,19,07,50,15.40
2009,07,19,07,51,15.40
2009,07,19,07,52,15.50
2009,07,19,07,53,15.50
2009,07,19,07,54,15.60
2009,07,19,07,55,15.60
2009,07,19,07,56,15.80
2009,07,19,07,57,15.80
2009,07,19,07,58,15.80
2009,07,19,07,59,15.80
2009,07,19,08,00,15.80
2009,07,19,08,01,15.70
2009,07,19,08,02,15.80
2009,07,19,08,03,15.80
2009,07,19,08,04,15.80
2009,07,19,08,05,15.90
2009,07,19,08,06,16.00
2009,07,19,08,07,16.10
2009,07,19,08,08,16.10
2009,07,19,08,09,16.10
2009,07,19,08,10,16.20
2009,07,19,08,11,16.20
2009,07,19,08,12,16.20
2009,07,19,08,13,16.20
2009,07,19,08,14,16.10
2009,07,19,08,15,15.90
2009,07,19,08,16,15.70
2009,07,19,08,17,15.50
2009,07,19,08,18,15.40
2009,07,19,08,19,15.30
2009,07,19,08,20,15.30
2009,07,19,08,21,15.40
2009,07,19,08,22,15.30
2009,07,19,08,23,15.30
2009,07,19,08,24,15.10
2009,07,19,08,25,15.00
2009,07,19,08,26,15.00
2009,07,19,08,27,15.10
2009,07,19,08,28,15.10
2009,07,19,08,29,15.20
2009,07,19,08,30,15.30
2009,07,19,08,31,15.30
2009,07,19,08,32,15.30
2009,07,19,08,33,15.30
2009,07,19,08,34,15.30
2009,07,19,08,35,15.20
2009,07,19,08,36,15.00
2009,07,19,08,37,15.00
2009,07,19,08,38,15.00
2009,07,19,08,39,15.10
2009,07,19,08,40,15.20
2009,07,19,08,41,15.30
2009,07,19,08,42,15.40
2009,07,19,08,43,15.40
2009,07,19,08,44,15.50
2009,07,19,08,45,15.50
2009,07,19,08,46,15.60
2009,07,19,08,47,15.70
2009,07,19,08,48,15.70
2009,07,19,08,49,15.80
2009,07,19,08,50,15.80
2009,07,19,08,51,15.90
2009,07,19,08,52,16.00
2009,07,19,08,53,16.10
2009,07,19,08,54,16.20
2009,07,19,08,55,16.30
2009,07,19,08,56,16.40
2009,07,19,08,57,16.60
2009,07,19,08,58,16.70
2009,07,19,08,59,16.70
2009,07,19,09,00,16.80
2009,07,19,09,01,16.80
2009,07,19,09,02,16.90
2009,07,19,09,03,16.90
2009,07,19,09,04,16.90
2009,07,19,09,05,17.00
2009,07,19,09,06,17.20
2009,07,19,09,07,17.00
2009,07,19,09,08,17.00
2009,07,19,09,09,16.90
2009,07,19,09,10,16.80
2009,07,19,09,11,16.90
2009,07,19,09,12,16.80
2009,07,19,09,13,16.70
2009,07,19,09,14,16.70
2009,07,19,09,15,16.70
2009,07,19,09,16,16.70
2009,07,19,09,17,16.60
2009,07,19,09,18,16.50
2009,07,19,09,19,16.30
2009,07,19,09,20,16.20
2009,07,19,09,21,16.10
2009,07,19,09,22,16.10
2009,07,19,09,23,16.20
2009,07,19,09,24,16.20
2009,07,19,09,25,16.40
2009,07,19,09,26,16.60
2009,07,19,09,27,16.70
2009,07,19,09,28,16.70
2009,07,19,09,29,16.70
2009,07,19,09,30,16.70
2009,07,19,09,31,16.70
2009,07,19,09,32,16.60
2009,07,19,09,33,16.50
2009,07,19,09,34,16.30
2009,07,19,09,35,16.20
2009,07,19,09,36,16.10
2009,07,19,09,37,16.10
2009,07,19,09,38,16.10
2009,07,19,09,39,16.10
2009,07,19,09,40,16.00
2009,07,19,09,41,15.90
2009,07,19,09,42,16.00
2009,07,19,09,43,16.10
2009,07,19,09,44,16.20
2009,07,19,09,45,16.40
2009,07,19,09,46,16.60
2009,07,19,09,47,16.70
2009,07,19,09,48,16.70
2009,07,19,09,49,16.70
2009,07,19,09,50,16.80
2009,07,19,09,51,16.90
2009,07,19,09,52,16.90
2009,07,19,09,53,16.90
2009,07,19,09,54,16.80
2009,07,19,09,55,16.70
2009,07,19,09,56,16.70
2009,07,19,09,57,16.80
2009,07,19,09,58,16.90
2009,07,19,09,59,16.90
2009,07,19,10,00,16.90
2009,07,19,10,01,16.80
2009,07,19,10,02,16.70
2009,07,19,10,03,16.60
2009,07,19,10,04,16.60
2009,07,19,10,05,16.50
2009,07,19,10,06,16.40
2009,07,19,10,07,16.60
2009,07,19,10,08,16.60
2009,07,19,10,09,16.70
2009,07,19,10,10,16.80
2009,07,19,10,11,16.80
2009,07,19,10,12,16.90
2009,07,19,10,13,17.00
2009,07,19,10,14,17.10
2009,07,19,10,15,17.20
2009,07,19,10,16,17.20
2009,07,19,10,17,17.30
2009,07,19,10,18,17.30
2009,07,19,10,19,17.30
2009,07,19,10,20,17.30
2009,07,19,10,21,17.40
2009,07,19,10,22,17.40
2009,07,19,10,23,17.50
2009,07,19,10,24,17.60
2009,07,19,10,25,17.60
2009,07,19,10,26,17.70
2009,07,19,10,27,17.70
2009,07,19,10,28,17.80
2009,07,19,10,29,17.90
2009,07,19,10,30,17.90
2009,07,19,10,31,18.00
2009,07,19,10,32,18.10
2009,07,19,10,33,18.10
2009,07,19,10,34,18.20
2009,07,19,10,35,18.20
2009,07,19,10,36,18.20
2009,07,19,10,37,18.10
2009,07,19,10,38,18.20
2009,07,19,10,39,18.20
2009,07,19,10,40,18.20
2009,07,19,10,41,18.20
2009,07,19,10,42,18.20
2009,07,19,10,43,18.20
2009,07,19,10,44,18.20
2009,07,19,10,45,18.20
2009,07,19,10,46,18.20
2009,07,19,10,47,18.00
2009,07,19,10,48,17.90
2009,07,19,10,49,17.70
2009,07,19,10,50,17.50
2009,07,19,10,51,17.30
2009,07,19,10,52,17.20
2009,07,19,10,53,17.10
2009,07,19,10,54,17.00
2009,07,19,10,55,17.00
2009,07,19,10,56,17.00
2009,07,19,10,57,17.10
2009,07,19,10,58,17.10
2009,07,19,10,59,17.20
2009,07,19,11,00,17.30
2009,07,19,11,01,17.40
2009,07,19,11,02,17.50
2009,07,19,11,03,17.60
2009,07,19,11,04,17.80
2009,07,19,11,05,17.80
2009,07,19,11,06,17.80
2009,07,19,11,07,17.70
2009,07,19,11,08,17.70
2009,07,19,11,09,17.80
2009,07,19,11,10,17.90
2009,07,19,11,11,17.90
2009,07,19,11,12,17.80
2009,07,19,11,13,17.60
2009,07,19,11,14,17.50
2009,07,19,11,15,17.50
2009,07,19,11,16,17.40
2009,07,19,11,17,17.40
2009,07,19,11,18,17.40
2009,07,19,11,19,17.30
2009,07,19,11,20,17.30
2009,07,19,11,21,17.30
2009,07,19,11,22,17.30
2009,07,19,11,23,17.30
2009,07,19,11,24,17.40
2009,07,19,11,25,17.40
2009,07,19,11,26,17.50
2009,07,19,11,27,17.50
2009,07,19,11,28,17.50
2009,07,19,11,29,17.50
2009,07,19,11,30,17.50
2009,07,19,11,31,17.50
2009,07,19,11,32,17.60
2009,07,19,11,33,17.60
2009,07,19,11,34,17.50
2009,07,19,11,35,17.40
2009,07,19,11,36,17.30
2009,07,19,11,37,17.30
2009,07,19,11,38,17.30
2009,07,19,11,39,17.30
2009,07,19,11,40,17.30
2009,07,19,11,41,17.30
2009,07,19,11,42,17.40
2009,07,19,11,43,17.60
2009,07,19,11,44,17.80
2009,07,19,11,45,17.90
2009,07,19,11,46,17.90
2009,07,19,11,47,17.90
2009,07,19,11,48,17.90
2009,07,19,11,49,17.90
2009,07,19,11,50,18.00
2009,07,19,11,51,18.20
2009,07,19,11,52,18.30
2009,07,19,11,53,18.30
2009,07,19,11,54,18.40
2009,07,19,11,55,18.50
2009,07,19,11,56,18.70
2009,07,19,11,57,18.90
2009,07,19,11,58,19.10
2009,07,19,11,59,19.10
2009,07,19,12,00,19.20
2009,07,19,12,01,19.40
2009,07,19,12,02,19.50
2009,07,19,12,03,19.60
2009,07,19,12,04,19.60
2009,07,19,12,05,19.60
2009,07,19,12,06,19.50
2009,07,19,12,07,19.40
2009,07,19,12,08,19.40
2009,07,19,12,09,19.30
2009,07,19,12,10,19.20
2009,07,19,12,11,19.10
2009,07,19,12,12,19.10
2009,07,19,12,13,18.90
2009,07,19,12,14,18.70
2009,07,19,12,15,18.70
2009,07,19,12,16,18.80
2009,07,19,12,17,18.90
2009,07,19,12,18,19.20
2009,07,19,12,19,19.30
2009,07,19,12,20,19.30
2009,07,19,12,21,19.20
2009,07,19,12,22,19.20
2009,07,19,12,23,19.40
2009,07,19,12,24,19.50
2009,07,19,12,25,19.50
2009,07,19,12,26,19.60
2009,07,19,12,27,19.60
2009,07,19,12,28,19.60
2009,07,19,12,29,19.60
2009,07,19,12,30,19.60
2009,07,19,12,31,19.70
2009,07,19,12,32,19.70
2009,07,19,12,33,19.70
2009,07,19,12,34,19.70
2009,07,19,12,35,19.60
2009,07,19,12,36,19.50
2009,07,19,12,37,19.50
2009,07,19,12,38,19.40
2009,07,19,12,39,19.30
2009,07,19,12,40,19.20
2009,07,19,12,41,19.20
2009,07,19,12,42,19.20
2009,07,19,12,43,19.20
2009,07,19,12,44,19.20
2009,07,19,12,45,19.10
2009,07,19,12,46,19.00
2009,07,19,12,47,18.90
2009,07,19,12,48,18.90
2009,07,19,12,49,18.80
2009,07,19,12,50,18.80
2009,07,19,12,51,18.80
2009,07,19,12,52,18.80
2009,07,19,12,53,18.80
2009,07,19,12,54,18.90
2009,07,19,12,55,18.90
2009,07,19,12,56,18.90
2009,07,19,12,57,18.90
2009,07,19,12,58,18.90
2009,07,19,12,59,18.90
2009,07,19,13,00,18.90
2009,07,19,13,01,18.90
2009,07,19,13,02,18.90
2009,07,19,13,03,18.90
2009,07,19,13,04,19.00
2009,07,19,13,05,19.10
2009,07,19,13,06,19.10
2009,07,19,13,07,19.10
2009,07,19,13,08,19.10
2009,07,19,13,09,19.00
2009,07,19,13,10,18.90
2009,07,19,13,11,18.90
2009,07,19,13,12,18.80
2009,07,19,13,13,18.80
2009,07,19,13,14,18.80
2009,07,19,13,15,18.90
2009,07,19,13,16,18.90
2009,07,19,13,17,19.10
2009,07,19,13,18,19.20
2009,07,19,13,19,19.30
2009,07,19,13,20,19.50
2009,07,19,13,21,19.60
2009,07,19,13,22,19.80
2009,07,19,13,23,20.00
2009,07,19,13,24,20.20
2009,07,19,13,25,20.10
2009,07,19,13,26,20.10
2009,07,19,13,27,19.90
2009,07,19,13,28,19.70
2009,07,19,13,29,19.60
2009,07,19,13,30,19.60
2009,07,19,13,31,19.50
2009,07,19,13,32,19.50
2009,07,19,13,33,19.60
2009,07,19,13,34,19.60
2009,07,19,13,35,19.60
2009,07,19,13,36,19.70
2009,07,19,13,37,19.70
2009,07,19,13,38,19.80
2009,07,19,13,39,19.70
2009,07,19,13,40,19.70
2009,07,19,13,41,19.70
2009,07,19,13,42,19.80
2009,07,19,13,43,19.80
2009,07,19,13,44,19.80
2009,07,19,13,45,19.90
2009,07,19,13,46,20.00
2009,07,19,13,47,20.10
2009,07,19,13,48,20.20
2009,07,19,13,49,20.20
2009,07,19,13,50,20.20
2009,07,19,13,51,20.20
2009,07,19,13,52,20.20
2009,07,19,13,53,20.20
2009,07,19,13,54,20.20
2009,07,19,13,55,20.20
2009,07,19,13,56,20.20
2009,07,19,13,57,20.20
2009,07,19,13,58,20.30
2009,07,19,13,59,20.20
2009,07,19,14,00,20.20
2009,07,19,14,01,20.10
2009,07,19,14,02,20.10
2009,07,19,14,03,20.10
2009,07,19,14,04,20.20
2009,07,19,14,05,20.20
2009,07,19,14,06,20.20
2009,07,19,14,07,20.20
2009,07,19,14,08,20.20
2009,07,19,14,09,20.20
2009,07,19,14,10,20.10
2009,07,19,14,11,19.90
2009,07,19,14,12,19.80
2009,07,19,14,13,19.80
2009,07,19,14,14,19.70
2009,07,19,14,15,19.70
2009,07,19,14,16,19.80
2009,07,19,14,17,19.70
2009,07,19,14,18,19.70
2009,07,19,14,19,19.60
2009,07,19,14,20,19.60
2009,07,19,14,21,19.50
2009,07,19,14,22,19.50
2009,07,19,14,23,19.50
2009,07,19,14,24,19.40
2009,07,19,14,25,19.40
2009,07,19,14,26,19.30
2009,07,19,14,27,19.20
2009,07,19,14,28,19.00
2009,07,19,14,29,18.90
2009,07,19,14,30,18.90
2009,07,19,14,31,18.80
2009,07,19,14,32,18.80
2009,07,19,14,33,18.80
2009,07,19,14,34,18.90
2009,07,19,14,35,18.90
2009,07,19,14,36,18.90
2009,07,19,14,37,18.90
2009,07,19,14,38,18.90
2009,07,19,14,39,19.00
2009,07,19,14,40,19.10
2009,07,19,14,41,19.20
2009,07,19,14,42,19.30
2009,07,19,14,43,19.20
2009,07,19,14,44,19.10
2009,07,19,14,45,18.90
2009,07,19,14,46,18.80
2009,07,19,14,47,18.80
2009,07,19,14,48,18.80
2009,07,19,14,49,18.80
2009,07,19,14,50,18.90
2009,07,19,14,51,18.70
2009,07,19,14,52,18.70
2009,07,19,14,53,18.60
2009,07,19,14,54,18.60
2009,07,19,14,55,18.70
2009,07,19,14,56,18.90
2009,07,19,14,57,19.00
2009,07,19,14,58,19.10
2009,07,19,14,59,19.20
2009,07,19,15,00,19.30
2009,07,19,15,01,19.30
2009,07,19,15,02,19.20
2009,07,19,15,03,19.00
2009,07,19,15,04,18.90
2009,07,19,15,05,18.70
2009,07,19,15,06,18.60
2009,07,19,15,07,18.50
2009,07,19,15,08,18.50
2009,07,19,15,09,18.50
2009,07,19,15,10,18.60
2009,07,19,15,11,18.70
2009,07,19,15,12,18.80
2009,07,19,15,13,19.10
2009,07,19,15,14,19.30
2009,07,19,15,15,19.60
2009,07,19,15,16,20.00
2009,07,19,15,17,20.40
2009,07,19,15,18,20.70
2009,07,19,15,19,21.00
2009,07,19,15,20,21.10
2009,07,19,15,21,21.30
2009,07,19,15,22,21.40
2009,07,19,15,23,21.50
2009,07,19,15,24,21.60
2009,07,19,15,25,21.60
2009,07,19,15,26,21.60
2009,07,19,15,27,21.70
2009,07,19,15,28,21.80
2009,07,19,15,29,21.90
2009,07,19,15,30,22.00
2009,07,19,15,31,22.00
2009,07,19,15,32,22.10
2009,07,19,15,33,22.30
2009,07,19,15,34,22.40
2009,07,19,15,35,22.60
2009,07,19,15,36,22.60
2009,07,19,15,37,22.70
2009,07,19,15,38,22.80
2009,07,19,15,39,22.90
2009,07,19,15,40,23.10
2009,07,19,15,41,23.20
2009,07,19,15,42,23.30
2009,07,19,15,43,23.30
2009,07,19,15,44,23.30
2009,07,19,15,45,23.30
2009,07,19,15,46,23.30
2009,07,19,15,47,23.20
2009,07,19,15,48,23.10
2009,07,19,15,49,22.90
2009,07,19,15,50,22.90
2009,07,19,15,51,22.90
2009,07,19,15,52,22.80
2009,07,19,15,53,22.80
2009,07,19,15,54,22.80
2009,07,19,15,55,22.80
2009,07,19,15,56,22.80
2009,07,19,15,57,22.60
2009,07,19,15,58,22.60
2009,07,19,15,59,22.60
2009,07,19,16,00,22.70
2009,07,19,16,01,22.60
2009,07,19,16,02,22.50
2009,07,19,16,03,22.50
2009,07,19,16,04,22.50
2009,07,19,16,05,22.60
2009,07,19,16,06,22.70
2009,07,19,16,07,22.70
2009,07,19,16,08,22.80
2009,07,19,16,09,22.80
2009,07,19,16,10,22.80
2009,07,19,16,11,22.70
2009,07,19,16,12,22.70
2009,07,19,16,13,22.80
2009,07,19,16,14,22.80
2009,07,19,16,15,22.80
2009,07,19,16,16,22.80
2009,07,19,16,17,22.80
2009,07,19,16,18,22.80
2009,07,19,16,19,22.80
2009,07,19,16,20,22.90
2009,07,19,16,21,22.80
2009,07,19,16,22,22.80
2009,07,19,16,23,22.70
2009,07,19,16,24,22.70
2009,07,19,16,25,22.70
2009,07,19,16,26,22.70
2009,07,19,16,27,22.70
2009,07,19,16,28,22.70
2009,07,19,16,29,22.70
2009,07,19,16,30,22.80
2009,07,19,16,31,22.90
2009,07,19,16,32,22.90
2009,07,19,16,33,22.90
2009,07,19,16,34,22.90
2009,07,19,16,35,23.00
2009,07,19,16,36,23.20
2009,07,19,16,37,23.20
2009,07,19,16,38,23.30
2009,07,19,16,39,23.30
2009,07,19,16,40,23.20
2009,07,19,16,41,23.00
2009,07,19,16,42,22.90
2009,07,19,16,43,22.80
2009,07,19,16,44,22.80
2009,07,19,16,45,22.80
2009,07,19,16,46,22.80
2009,07,19,16,47,22.80
2009,07,19,16,48,22.90
2009,07,19,16,49,22.90
2009,07,19,16,50,23.00
2009,07,19,16,51,23.10
2009,07,19,16,52,23.10
2009,07,19,16,53,23.10
2009,07,19,16,54,23.10
2009,07,19,16,55,23.00
2009,07,19,16,56,22.70
2009,07,19,16,57,22.40
2009,07,19,16,58,22.10
2009,07,19,16,59,21.90
2009,07,19,17,00,21.70
2009,07,19,17,01,21.70
2009,07,19,17,02,21.60
2009,07,19,17,03,21.50
2009,07,19,17,04,21.30
2009,07,19,17,05,21.10
2009,07,19,17,06,20.90
2009,07,19,17,07,20.70
2009,07,19,17,08,20.50
2009,07,19,17,09,20.30
2009,07,19,17,10,20.10
2009,07,19,17,11,19.90
2009,07,19,17,12,19.80
2009,07,19,17,13,19.70
2009,07,19,17,14,19.70
2009,07,19,17,15,19.60
2009,07,19,17,16,19.50
2009,07,19,17,17,19.40
2009,07,19,17,18,19.20
2009,07,19,17,19,19.10